This demonstration page uses our WeatherBlox Daily Observations layout. Learn more.

Left ArrowRight Arrow

Hourly Observations for May 2, 2022

Temp ( °F °C ) Dew Point ( °F °C ) Humidity (%) Winds ( mph kmh ) Pressure ( in mb ) Visibility ( mi km ) Precip ( " mm )
12:56 am 00:56 Clear 46 8 38 3.3 72 72 NE 3 6 30.13 1020 10 16 0.00 0.00
1:56 am 01:56 Clear 46 7.6 38 3.1 73 73 NNE 3 6 30.12 1020 10 16 0.00 0.00
2:56 am 02:56 Clear 45 7.4 37 2.7 72 72 N 5 7 30.11 1020 10 16 0.00 0.00
3:56 am 03:56 Clear 44 6.8 36 2.3 73 73 N 3 6 30.11 1020 10 16 0.00 0.00
4:56 am 04:56 Mostly Cloudy 43 5.9 37 2.5 79 79 Calm 30.11 1020 10 16 0.00 0.00
5:56 am 05:56 Mostly Cloudy 43 6.2 36 2.1 75 75 Calm 30.13 1020 10 16 0.00 0.00
6:56 am 06:56 Cloudy 43 6.2 37 2.5 77 77 ENE 5 7 30.12 1020 10 16 0.00 0.00
7:56 am 07:56 Cloudy 44 6.4 37 2.5 76 76 NE 9 15 30.11 1020 10 16 0.00 0.00
8:56 am 08:56 Cloudy 44 6.5 35 1.4 70 70 NE 3 6 30.11 1020 10 16 0.00 0.00
9:45 am 09:45 Cloudy with Light Rain 45 7 34 1 66 66 NE 8 13 30.12 1020 10 16 0.00 0.00
9:56 am 09:56 Cloudy with Light Rain 44 6.6 35 1.7 71 71 NE 8 13 30.12 1020 10 16 0.00 0.00
10:56 am 10:56 Cloudy with Light Rain 43 6.2 38 3.2 81 81 NE 6 9 30.13 1020 5 8 0.00 0.00
11:56 am 11:56 Mostly Cloudy with Rain 43 5.9 38 3.6 85 85 ENE 7 11 30.11 1020 4 6 0.00 0.00
12:56 pm 12:56 Partly Cloudy with Mist and Fog 43 5.9 40 4.5 91 91 NE 8 13 30.07 1018 5 8 0.00 0.00
1:56 pm 13:56 Mostly Cloudy with Light Rain 42 5.8 39 3.8 87 87 E 12 19 30.06 1018 5 8 0.00 0.00
2:56 pm 14:56 Cloudy with Light Rain 43 6 39 3.7 85 85 ENE 14 22 30.02 1017 10 16 0.00 0.00
3:56 pm 15:56 Cloudy with Light Showers 44 6.4 39 3.7 83 83 ENE 12 19 30.00 1016 10 16 0.01 0.25
4:56 pm 16:56 Cloudy with Light Showers 43 6.2 39 3.9 85 85 NNE 7 11 30.01 1016 10 16 0.02 0.51
5:56 pm 17:56 Cloudy with Rain 43 6 40 4.6 91 91 NNW 8 13 30.03 1017 4 6 0.12 3.05
6:26 pm 18:26 Partly Cloudy with Mist and Fog 43 6 41 5 93 93 NNE 14 22 29.96 1015 3 5 0.00 0.00
6:56 pm 18:56 Cloudy with Light Rain 42 5.7 40 4.3 91 91 NNE 13 20 29.96 1015 6 10 0.16 4.06
7:56 pm 19:56 Cloudy with Light Showers 43 5.9 39 4.1 88 88 N 12 19 29.98 1015 10 16 0.02 0.51
8:56 pm 20:56 Cloudy with Light Showers 42 5.6 39 4.1 90 90 N 15 24 29.98 1015 7 11 0.06 1.52
9:56 pm 21:56 Cloudy with Light Rain 42 5.5 39 3.8 89 89 N 13 20 29.96 1015 9 14 0.11 2.79
10:56 pm 22:56 Cloudy 42 5.5 39 3.8 89 89 N 12 19 29.99 1016 10 16 0.00 0.00
11:56 pm 23:56 Cloudy 42 5.3 39 3.9 91 91 N 13 20 29.97 1015 10 16 0.00 0.00

Powered by AerisWeather